| time (UTC) | temp F | wind direction | speed MPH | gust MPH | rain 1hr in | rain 24hr in | rain mn in | humidity % | barometer mb |
| 20260502203035 | 62 | 281 | 6.0 | 12.0 | 0.00 | 1.22 | 1.10 | 85 | 1022.0 |
| 20260502202601 | 62 | 244 | 8.0 | 13.0 | 0.00 | 1.22 | 1.10 | 85 | 1021.9 |
| 20260502202042 | 62 | 290 | 9.0 | 13.0 | 0.00 | 1.22 | 1.10 | 84 | 1021.9 |
| 20260502201527 | 62 | 273 | 5.0 | 10.0 | 0.00 | 1.22 | 1.10 | 84 | 1021.9 |
| 20260502201031 | 62 | 220 | 4.0 | 8.0 | 0.00 | 1.22 | 1.10 | 83 | 1021.9 |
| 20260502200533 | 63 | 282 | 5.0 | 8.0 | 0.00 | 1.22 | 1.10 | 83 | 1021.8 |
| 20260502200038 | 63 | 287 | 5.0 | 12.0 | 0.00 | 1.22 | 1.10 | 83 | 1021.8 |
| 20260502195540 | 63 | 289 | 7.0 | 13.0 | 0.00 | 1.22 | 1.10 | 83 | 1021.8 |
| 20260502195042 | 63 | 226 | 7.0 | 11.0 | 0.00 | 1.22 | 1.10 | 83 | 1021.7 |
| 20260502194529 | 63 | 288 | 5.0 | 12.0 | 0.00 | 1.22 | 1.10 | 83 | 1021.6 |
| 20260502194031 | 63 | 271 | 8.0 | 12.0 | 0.00 | 1.22 | 1.10 | 83 | 1021.5 |
| 20260502193534 | 63 | 268 | 4.0 | 11.0 | 0.00 | 1.22 | 1.10 | 83 | 1021.5 |
| 20260502193033 | 63 | 285 | 7.0 | 11.0 | 0.00 | 1.22 | 1.10 | 82 | 1021.4 |
| 20260502192535 | 63 | 236 | 4.0 | 11.0 | 0.00 | 1.22 | 1.10 | 83 | 1021.4 |
| 20260502192056 | 64 | 248 | 6.0 | 10.0 | 0.00 | 1.22 | 1.10 | 83 | 1021.3 |
| 20260502191537 | 64 | 243 | 5.0 | 10.0 | 0.00 | 1.22 | 1.10 | 83 | 1021.3 |
| 20260502191039 | 64 | 262 | 5.0 | 10.0 | 0.00 | 1.22 | 1.10 | 83 | 1021.2 |
| 20260502190543 | 64 | 265 | 6.0 | 12.0 | 0.00 | 1.22 | 1.10 | 82 | 1021.2 |
| 20260502190027 | 64 | 268 | 5.0 | 16.0 | 0.00 | 1.22 | 1.10 | 83 | 1021.2 |
| 20260502185530 | 64 | 250 | 8.0 | 16.0 | 0.00 | 1.22 | 1.10 | 82 | 1021.1 |
| 20260502185033 | 64 | 273 | 4.0 | 12.0 | 0.00 | 1.22 | 1.10 | 83 | 1021.0 |
| 20260502184537 | 64 | 226 | 6.0 | 12.0 | 0.00 | 1.22 | 1.10 | 83 | 1021.0 |
| 20260502184040 | 64 | 268 | 5.0 | 13.0 | 0.00 | 1.22 | 1.10 | 83 | 1020.9 |
| 20260502183529 | 64 | 288 | 7.0 | 13.0 | 0.00 | 1.22 | 1.10 | 83 | 1021.0 |
| 20260502183031 | 65 | 242 | 7.0 | 12.0 | 0.00 | 1.22 | 1.10 | 82 | 1020.8 |
| 20260502182534 | 65 | 225 | 5.0 | 10.0 | 0.00 | 1.22 | 1.10 | 83 | 1020.8 |
| 20260502182034 | 65 | 285 | 5.0 | 11.0 | 0.00 | 1.22 | 1.10 | 82 | 1020.8 |
| 20260502181537 | 65 | 231 | 6.0 | 11.0 | 0.00 | 1.22 | 1.10 | 82 | 1020.8 |
| 20260502181039 | 65 | 307 | 6.0 | 11.0 | 0.00 | 1.22 | 1.10 | 82 | 1020.8 |
| 20260502180540 | 65 | 261 | 3.0 | 11.0 | 0.00 | 1.22 | 1.10 | 82 | 1020.7 |
| 20260502180104 | 65 | 198 | 7.0 | 11.0 | 0.00 | 1.22 | 1.10 | 81 | 1020.6 |
| 20260502164033 | 66 | 224 | 8.0 | 15.0 | 0.00 | 1.22 | 1.10 | 80 | 1020.6 |
| 20260502163555 | 66 | 262 | 8.0 | 14.0 | 0.00 | 1.22 | 1.10 | 80 | 1020.6 |
| 20260502163035 | 67 | 250 | 7.0 | 17.0 | 0.00 | 1.22 | 1.10 | 80 | 1020.6 |
| 20260502162538 | 67 | 229 | 9.0 | 17.0 | 0.00 | 1.22 | 1.10 | 79 | 1020.6 |
| 20260502162041 | 67 | 252 | 6.0 | 14.0 | 0.00 | 1.22 | 1.10 | 79 | 1020.5 |
| 20260502161528 | 67 | 259 | 7.0 | 14.0 | 0.00 | 1.22 | 1.10 | 78 | 1020.4 |
| 20260502161033 | 68 | 200 | 7.0 | 15.0 | 0.00 | 1.22 | 1.10 | 80 | 1020.4 |
| 20260502160533 | 68 | 224 | 9.0 | 15.0 | 0.00 | 1.22 | 1.10 | 78 | 1020.3 |
| 20260502152055 | 67 | 335 | 3.0 | 7.0 | 0.00 | 1.22 | 1.10 | 82 | 1019.3 |
| 20260502151537 | 67 | 308 | 5.0 | 6.0 | 0.00 | 1.22 | 1.10 | 84 | 1019.3 |
| 20260502151039 | 67 | 285 | 3.0 | 7.0 | 0.00 | 1.22 | 1.10 | 85 | 1019.5 |
| 20260502150528 | 66 | 314 | 4.0 | 9.0 | 0.00 | 1.22 | 1.10 | 86 | 1019.6 |
| 20260502130533 | 64 | 244 | 6.0 | 14.0 | 0.00 | 1.22 | 1.10 | 93 | 1020.0 |
| 20260502123538 | 65 | 305 | 4.0 | 10.0 | 0.00 | 1.22 | 1.10 | 93 | 1019.1 |
| 20260502123101 | 65 | 318 | 0.0 | 9.0 | 0.00 | 1.22 | 1.10 | 94 | 1019.0 |
| 20260502122541 | 65 | 315 | 6.0 | 11.0 | 0.00 | 1.22 | 1.10 | 94 | 1018.9 |
| 20260502122027 | 65 | 304 | 5.0 | 11.0 | 0.00 | 1.22 | 1.10 | 93 | 1018.9 |
| 20260502121532 | 65 | 314 | 5.0 | 10.0 | 0.00 | 1.22 | 1.10 | 93 | 1018.8 |
| 20260502121036 | 65 | 333 | 4.0 | 8.0 | 0.00 | 1.22 | 1.10 | 94 | 1018.7 |
| 20260502120537 | 64 | 311 | 3.0 | 10.0 | 0.00 | 1.22 | 1.10 | 94 | 1018.7 |
| 20260502115525 | 64 | 354 | 4.0 | 10.0 | 0.00 | 1.22 | 1.10 | 93 | 1018.4 |
| 20260502115029 | 64 | 306 | 5.0 | 10.0 | 0.00 | 1.22 | 1.10 | 93 | 1018.4 |
| 20260502114531 | 64 | 360 | 5.0 | 9.0 | 0.00 | 1.22 | 1.10 | 93 | 1018.5 |
| 20260502114033 | 64 | 345 | 5.0 | 11.0 | 0.00 | 1.22 | 1.10 | 93 | 1018.4 |
| 20260502113537 | 64 | 330 | 5.0 | 11.0 | 0.00 | 1.22 | 1.10 | 92 | 1018.4 |
| 20260502113058 | 64 | 328 | 5.0 | 9.0 | 0.00 | 1.22 | 1.10 | 92 | 1018.2 |
| 20260502112541 | 64 | 307 | 4.0 | 10.0 | 0.00 | 1.22 | 1.10 | 93 | 1018.0 |
| 20260502112044 | 64 | 12 | 5.0 | 11.0 | 0.00 | 1.22 | 1.10 | 93 | 1017.8 |
| 20260502111527 | 64 | 20 | 5.0 | 11.0 | 0.00 | 1.22 | 1.10 | 93 | 1017.6 |
| 20260502111031 | 64 | 1 | 4.0 | 9.0 | 0.00 | 1.22 | 1.10 | 93 | 1017.5 |
| 20260502110534 | 64 | 1 | 5.0 | 9.0 | 0.00 | 1.22 | 1.10 | 93 | 1017.4 |
| 20260502110038 | 64 | 13 | 5.0 | 9.0 | 0.00 | 1.22 | 1.10 | 93 | 1017.2 |
| 20260502105540 | 64 | 4 | 6.0 | 10.0 | 0.00 | 1.22 | 1.10 | 93 | 1017.0 |
| 20260502105044 | 64 | 2 | 6.0 | 10.0 | 0.00 | 1.22 | 1.10 | 93 | 1016.9 |
| 20260502104547 | 63 | 6 | 4.0 | 10.0 | 0.00 | 1.22 | 1.10 | 93 | 1016.8 |
| 20260502104029 | 63 | 307 | 6.0 | 10.0 | 0.00 | 1.22 | 1.10 | 93 | 1016.6 |
| 20260502103531 | 63 | 7 | 6.0 | 11.0 | 0.00 | 1.22 | 1.10 | 93 | 1016.3 |
| 20260502103035 | 63 | 289 | 6.0 | 11.0 | 0.00 | 1.22 | 1.10 | 93 | 1016.2 |
| 20260502102542 | 63 | 1 | 8.0 | 11.0 | 0.00 | 1.22 | 1.10 | 93 | 1016.1 |
| 20260502102027 | 63 | 9 | 6.0 | 11.0 | 0.00 | 1.22 | 1.10 | 93 | 1016.1 |
| 20260502101530 | 63 | 25 | 7.0 | 11.0 | 0.00 | 1.22 | 1.10 | 94 | 1016.1 |
| 20260502101034 | 63 | 356 | 5.0 | 11.0 | 0.00 | 1.22 | 1.10 | 94 | 1016.1 |
| 20260502100539 | 63 | 359 | 4.0 | 10.0 | 0.00 | 1.22 | 1.10 | 94 | 1016.0 |
| 20260502091048 | 62 | 359 | 9.0 | 11.0 | 0.00 | 1.22 | 1.10 | 94 | 1015.1 |
| 20260502090531 | 62 | 6 | 6.0 | 12.0 | 0.00 | 1.22 | 1.10 | 94 | 1015.4 |
| 20260502071041 | 62 | 6 | 10.0 | 15.0 | 0.35 | 1.22 | 1.10 | 96 | 1015.0 |
| 20260502070603 | 62 | 11 | 8.0 | 15.0 | 0.43 | 1.22 | 1.10 | 95 | 1015.0 |
| 20260502070046 | 62 | 343 | 10.0 | 18.0 | 0.51 | 1.22 | 1.10 | 95 | 1014.9 |
| 20260502065530 | 62 | 338 | 11.0 | 18.0 | 0.63 | 1.22 | 1.10 | 95 | 1014.6 |
| 20260502065033 | 62 | 349 | 10.0 | 17.0 | 0.71 | 1.22 | 1.10 | 95 | 1014.7 |
| 20260502064537 | 62 | 6 | 9.0 | 18.0 | 0.83 | 1.22 | 1.10 | 95 | 1014.2 |
| 20260502064057 | 62 | 353 | 11.0 | 19.0 | 0.91 | 1.22 | 1.09 | 95 | 1014.8 |
| 20260502063538 | 61 | 359 | 10.0 | 19.0 | 0.98 | 1.21 | 1.09 | 95 | 1015.0 |
| 20260502063041 | 61 | 330 | 10.0 | 17.0 | 1.10 | 1.21 | 1.08 | 95 | 1014.9 |
| 20260502062548 | 61 | 360 | 12.0 | 17.0 | 1.14 | 1.20 | 1.06 | 95 | 1014.5 |
| 20260502062028 | 61 | 359 | 10.0 | 17.0 | 1.22 | 1.20 | 1.04 | 95 | 1015.0 |
| 20260502061035 | 62 | 1 | 9.0 | 16.0 | 1.34 | 1.18 | 1.01 | 95 | 1016.0 |
| 20260502060556 | 62 | 18 | 9.0 | 16.0 | 1.42 | 1.18 | 0.99 | 95 | 1016.6 |
| 20260502060056 | 62 | 11 | 8.0 | 21.0 | 1.46 | 1.17 | 0.97 | 95 | 1016.9 |
| 20260502055538 | 62 | 5 | 9.0 | 21.0 | 1.38 | 1.16 | 0.94 | 95 | 1016.9 |
| 20260502055047 | 62 | 47 | 8.0 | 14.0 | 1.38 | 1.15 | 0.92 | 95 | 1016.9 |
| 20260502054529 | 61 | 13 | 9.0 | 16.0 | 1.34 | 1.14 | 0.89 | 95 | 1016.9 |
| 20260502054032 | 61 | 7 | 11.0 | 16.0 | 1.30 | 1.13 | 0.86 | 95 | 1016.8 |
| 20260502053534 | 62 | 19 | 8.0 | 15.0 | 1.38 | 1.11 | 0.83 | 95 | 1017.0 |
| 20260502053059 | 61 | 1 | 9.0 | 15.0 | 1.46 | 1.10 | 0.80 | 95 | 1017.1 |
| 20260502052542 | 61 | 1 | 9.0 | 14.0 | 1.50 | 1.09 | 0.77 | 95 | 1017.5 |
| 20260502052045 | 61 | 12 | 9.0 | 13.0 | 1.46 | 1.07 | 0.73 | 95 | 1017.3 |
| 20260502051528 | 62 | 13 | 9.0 | 15.0 | 1.50 | 1.06 | 0.70 | 95 | 1017.3 |
| 20260502051032 | 61 | 359 | 9.0 | 13.0 | 1.46 | 1.05 | 0.66 | 95 | 1017.5 |
| 20260502050533 | 62 | 4 | 6.0 | 12.0 | 1.38 | 1.03 | 0.63 | 95 | 1017.4 |
| 20260502050041 | 62 | 9 | 6.0 | 12.0 | 1.26 | 1.02 | 0.60 | 95 | 1017.6 |
| 20260502045547 | 62 | 1 | 7.0 | 12.0 | 1.26 | 1.02 | 0.59 | 95 | 1017.8 |
| 20260502045033 | 62 | 1 | 6.0 | 13.0 | 1.26 | 1.01 | 0.57 | 95 | 1017.6 |
| 20260502044537 | 62 | 13 | 8.0 | 13.0 | 1.26 | 1.00 | 0.55 | 95 | 1017.8 |
| 20260502044041 | 62 | 6 | 7.0 | 12.0 | 1.38 | 1.00 | 0.53 | 95 | 1017.9 |
| 20260502043527 | 62 | 18 | 6.0 | 11.0 | 1.42 | 9.76 | 0.47 | 95 | 1017.8 |
| 20260502043033 | 62 | 57 | 6.0 | 11.0 | 1.34 | 9.61 | 0.43 | 95 | 1017.3 |
| 20260502042534 | 62 | 86 | 5.0 | 11.0 | 1.22 | 9.45 | 0.39 | 95 | 1016.7 |
| 20260502042058 | 62 | 79 | 3.0 | 11.0 | 1.18 | 9.33 | 0.36 | 95 | 1016.6 |
| 20260502041542 | 62 | 22 | 7.0 | 10.0 | 1.06 | 9.17 | 0.32 | 95 | 1016.6 |
| 20260502041047 | 62 | 42 | 4.0 | 12.0 | 1.02 | 9.06 | 0.29 | 95 | 1016.4 |
| 20260502040533 | 62 | 20 | 7.0 | 14.0 | 1.10 | 9.02 | 0.28 | 95 | 1016.4 |
| 20260502040040 | 61 | 93 | 9.0 | 14.0 | 1.18 | 9.02 | 0.28 | 95 | 1016.4 |
| 20260502035527 | 61 | 4 | 8.0 | 14.0 | 1.22 | 8.94 | 0.26 | 95 | 1016.3 |
| 20260502035032 | 61 | 127 | 8.0 | 14.0 | 1.26 | 8.90 | 0.25 | 95 | 1016.6 |
| 20260502034537 | 61 | 103 | 8.0 | 11.0 | 1.30 | 8.82 | 0.23 | 95 | 1017.2 |
| 20260502034040 | 62 | 58 | 6.0 | 9.0 | 1.34 | 8.62 | 0.18 | 95 | 1017.8 |
| 20260502033545 | 62 | 106 | 2.0 | 10.0 | 1.18 | 8.35 | 0.11 | 95 | 1018.5 |
| 20260502033027 | 62 | 114 | 5.0 | 10.0 | 1.38 | 8.27 | 0.09 | 95 | 1017.9 |
| 20260502032551 | 62 | 79 | 8.0 | 10.0 | 1.93 | 8.19 | 0.07 | 95 | 1017.2 |
| 20260502032034 | 62 | 68 | 5.0 | 13.0 | 2.17 | 8.15 | 0.06 | 95 | 1017.2 |
| 20260502031557 | 61 | 82 | 4.0 | 17.0 | 2.20 | 8.11 | 0.05 | 95 | 1016.9 |
| 20260502031040 | 61 | 20 | 8.0 | 21.0 | 2.32 | 8.03 | 0.03 | 95 | 1016.5 |
| 20260502030042 | 61 | 93 | 12.0 | 20.0 | 2.99 | 7.83 | 1.99 | 95 | 1017.0 |
| 20260502025527 | 61 | 60 | 12.0 | 19.0 | 3.03 | 7.72 | 1.96 | 95 | 1017.7 |
| 20260502025033 | 61 | 51 | 8.0 | 11.0 | 3.07 | 7.64 | 1.94 | 96 | 1017.8 |
| 20260502024536 | 61 | 116 | 7.0 | 9.0 | 3.19 | 7.52 | 1.91 | 96 | 1017.8 |
| 20260502024041 | 61 | 190 | 6.0 | 13.0 | 3.15 | 7.28 | 1.85 | 96 | 1018.4 |
| 20260502023545 | 61 | 195 | 5.0 | 13.0 | 3.23 | 7.13 | 1.81 | 96 | 1018.4 |
| 20260502023046 | 61 | 123 | 7.0 | 10.0 | 4.80 | 6.89 | 1.75 | 96 | 1018.4 |
| 20260502022529 | 61 | 101 | 7.0 | 13.0 | 5.67 | 6.22 | 1.58 | 96 | 1018.0 |
| 20260502022031 | 61 | 118 | 7.0 | 14.0 | 5.59 | 5.98 | 1.52 | 96 | 1017.9 |
| 20260502021534 | 61 | 125 | 7.0 | 16.0 | 5.55 | 5.91 | 1.50 | 95 | 1017.3 |
| 20260502021037 | 61 | 135 | 10.0 | 14.0 | 5.47 | 5.71 | 1.45 | 95 | 1017.7 |
| 20260502020540 | 61 | 151 | 8.0 | 15.0 | 5.04 | 5.16 | 1.31 | 95 | 1018.3 |
| 20260502020027 | 61 | 192 | 9.0 | 25.0 | 4.76 | 4.84 | 1.23 | 95 | 1018.3 |
| 20260502015532 | 61 | 117 | 19.0 | 25.0 | 4.61 | 4.69 | 1.19 | 95 | 1017.1 |
| 20260502015034 | 61 | 117 | 15.0 | 21.0 | 4.49 | 4.57 | 1.16 | 95 | 1018.0 |
| 20260502014537 | 61 | 174 | 12.0 | 26.0 | 4.25 | 4.33 | 1.10 | 95 | 1018.4 |
| 20260502014045 | 61 | 165 | 14.0 | 26.0 | 4.06 | 4.13 | 1.05 | 95 | 1017.9 |
| 20260502013528 | 62 | 142 | 16.0 | 28.0 | 3.43 | 3.50 | 0.89 | 94 | 1017.5 |
| 20260502013033 | 62 | 261 | 13.0 | 28.0 | 1.42 | 1.50 | 0.38 | 94 | 1019.6 |
| 20260502012538 | 62 | 221 | 14.0 | 25.0 | 0.47 | 0.55 | 0.14 | 94 | 1018.0 |
| 20260502012040 | 63 | 164 | 8.0 | 23.0 | 0.31 | 0.39 | 0.10 | 94 | 1016.7 |
| 20260502011542 | 62 | 122 | 14.0 | 23.0 | 0.28 | 0.35 | 0.09 | 94 | 1015.9 |
| 20260502011048 | 63 | 115 | 9.0 | 21.0 | 0.16 | 0.24 | 0.06 | 94 | 1016.3 |
| 20260502010528 | 63 | 189 | 12.0 | 21.0 | 0.04 | 0.12 | 0.03 | 94 | 1017.5 |
| 20260502010031 | 63 | 187 | 10.0 | 17.0 | 0.00 | 0.08 | 0.02 | 93 | 1017.6 |
| 20260502005535 | 64 | 117 | 10.0 | 19.0 | 0.04 | 0.08 | 0.02 | 94 | 1016.5 |
| 20260502005033 | 63 | 125 | 11.0 | 19.0 | 0.04 | 0.08 | 0.02 | 94 | 1016.0 |
| 20260502004535 | 63 | 109 | 12.0 | 18.0 | 0.04 | 0.08 | 0.02 | 94 | 1016.0 |
| 20260502004041 | 63 | 97 | 11.0 | 20.0 | 0.04 | 0.08 | 0.02 | 94 | 1015.9 |
| 20260502003605 | 63 | 109 | 13.0 | 22.0 | 0.04 | 0.08 | 0.02 | 94 | 1016.0 |
| 20260502003106 | 63 | 122 | 12.0 | 22.0 | 0.04 | 0.08 | 0.02 | 94 | 1016.0 |
| 20260502002546 | 63 | 124 | 14.0 | 20.0 | 0.04 | 0.08 | 0.02 | 94 | 1015.8 |
| 20260502002049 | 63 | 115 | 11.0 | 20.0 | 0.04 | 0.08 | 0.02 | 94 | 1016.2 |
| 20260502001530 | 63 | 121 | 12.0 | 17.0 | 0.04 | 0.08 | 0.02 | 95 | 1016.0 |
| 20260502001033 | 63 | 104 | 10.0 | 17.0 | 0.04 | 0.08 | 0.02 | 95 | 1016.0 |
| 20260502000557 | 63 | 82 | 9.0 | 17.0 | 0.04 | 0.08 | 0.02 | 95 | 1016.4 |
| 20260502000041 | 62 | 88 | 9.0 | 15.0 | 0.04 | 0.08 | 0.02 | 95 | 1016.6 |
| 20260501235603 | 62 | 96 | 8.0 | 14.0 | 0.04 | 0.04 | 0.01 | 95 | 1016.6 |
| 20260501235048 | 62 | 110 | 9.0 | 17.0 | 0.04 | 0.04 | 0.01 | 95 | 1016.6 |
| 20260501234529 | 62 | 115 | 10.0 | 19.0 | 0.04 | 0.04 | 0.01 | 95 | 1016.8 |
| 20260501234035 | 62 | 137 | 13.0 | 19.0 | 0.04 | 0.04 | 0.01 | 95 | 1016.8 |
| 20260501233555 | 62 | 141 | 10.0 | 18.0 | 0.04 | 0.04 | 0.01 | 95 | 1016.9 |
| 20260501233038 | 62 | 129 | 12.0 | 23.0 | 0.04 | 0.04 | 0.01 | 96 | 1016.6 |
| 20260501232540 | 62 | 122 | 12.0 | 23.0 | 0.04 | 0.04 | 0.01 | 96 | 1016.5 |
| 20260501232042 | 62 | 118 | 12.0 | 17.0 | 0.04 | 0.04 | 0.01 | 96 | 1016.3 |
| 20260501231529 | 62 | 110 | 11.0 | 18.0 | 0.04 | 0.04 | 0.01 | 96 | 1016.6 |
| 20260501231030 | 62 | 132 | 11.0 | 19.0 | 0.04 | 0.04 | 0.01 | 96 | 1016.8 |
| 20260501230531 | 62 | 109 | 12.0 | 19.0 | 0.04 | 0.04 | 0.01 | 96 | 1016.7 |
| 20260501230038 | 61 | 127 | 11.0 | 17.0 | 0.04 | 0.04 | 0.01 | 96 | 1016.8 |
| 20260501225540 | 61 | 129 | 12.0 | 15.0 | 0.00 | 0.00 | 0.00 | 96 | 1016.9 |
| 20260501225048 | 61 | 150 | 9.0 | 15.0 | 0.00 | 0.00 | 0.00 | 96 | 1017.0 |
| 20260501224528 | 61 | 148 | 11.0 | 15.0 | 0.00 | 0.00 | 0.00 | 96 | 1017.3 |
| 20260501224053 | 61 | 128 | 7.0 | 13.0 | 0.00 | 0.00 | 0.00 | 96 | 1017.5 |
| 20260501223556 | 61 | 146 | 8.0 | 13.0 | 0.00 | 0.00 | 0.00 | 95 | 1017.5 |
| 20260501223035 | 61 | 122 | 9.0 | 13.0 | 0.00 | 0.00 | 0.00 | 95 | 1017.4 |
| 20260501222559 | 61 | 148 | 7.0 | 12.0 | 0.00 | 0.00 | 0.00 | 95 | 1017.5 |
| 20260501222101 | 62 | 167 | 8.0 | 12.0 | 0.00 | 0.00 | 0.00 | 95 | 1017.8 |
| 20260501221107 | 61 | 98 | 8.0 | 12.0 | 0.00 | 0.00 | 0.00 | 95 | 1017.3 |
| 20260501220527 | 61 | 186 | 7.0 | 13.0 | 0.00 | 0.00 | 0.00 | 95 | 1017.3 |
| 20260501220052 | 61 | 175 | 6.0 | 13.0 | 0.00 | 0.00 | 0.00 | 95 | 1017.5 |
| 20260501215535 | 61 | 159 | 7.0 | 13.0 | 0.00 | 0.00 | 0.00 | 95 | 1017.4 |
| 20260501215039 | 61 | 192 | 5.0 | 12.0 | 0.00 | 0.00 | 0.00 | 95 | 1017.4 |
| 20260501214544 | 61 | 147 | 7.0 | 12.0 | 0.00 | 0.00 | 0.00 | 95 | 1017.4 |
| 20260501214027 | 61 | 169 | 7.0 | 16.0 | 0.00 | 0.00 | 0.00 | 95 | 1017.5 |
| 20260501213532 | 61 | 171 | 7.0 | 16.0 | 0.00 | 0.00 | 0.00 | 95 | 1017.5 |
| 20260501213053 | 61 | 199 | 6.0 | 12.0 | 0.00 | 0.00 | 0.00 | 95 | 1017.5 |
| 20260501212536 | 61 | 178 | 8.0 | 14.0 | 0.00 | 0.00 | 0.00 | 95 | 1017.4 |
| 20260501212036 | 61 | 178 | 9.0 | 14.0 | 0.00 | 0.00 | 0.00 | 95 | 1017.5 |
| 20260501211538 | 61 | 200 | 6.0 | 13.0 | 0.00 | 0.00 | 0.00 | 94 | 1017.7 |
| 20260501211040 | 61 | 158 | 3.0 | 15.0 | 0.00 | 0.00 | 0.00 | 94 | 1017.7 |
| 20260501210541 | 61 | 245 | 8.0 | 15.0 | 0.00 | 0.00 | 0.00 | 94 | 1017.9 |
| 20260501210028 | 61 | 224 | 7.0 | 13.0 | 0.00 | 0.00 | 0.00 | 94 | 1017.6 |
| 20260501205530 | 61 | 205 | 7.0 | 14.0 | 0.00 | 0.00 | 0.00 | 94 | 1017.4 |
| 20260501205050 | 61 | 213 | 9.0 | 14.0 | 0.00 | 0.00 | 0.00 | 94 | 1017.0 |
| 20260501204530 | 62 | 203 | 6.0 | 11.0 | 0.00 | 0.00 | 0.00 | 94 | 1016.8 |
| 20260501204031 | 62 | 196 | 8.0 | 13.0 | 0.00 | 0.00 | 0.00 | 93 | 1016.8 |
| 20260501203537 | 62 | 220 | 8.0 | 13.0 | 0.00 | 0.00 | 0.00 | 93 | 1016.8 |